铱星星座 137星 (IRIDIUM 137)

导读

IRIDIUM 137是美国于2017年12月23日发射的新一代铱星卫星,隶属于铱星Next星座,属于低地球轨道移动通信卫星,用于接替第一代铱星卫星,为全球包括南北极、海洋等偏远区域提供语音通信、数据传输、定位等服务,保障跨区域无缝通信连接,推动海事、应急等领域全球通信能力升级。

Basic Information
目录编号:
43076
目录名称:
IRIDIUM 137
国际标识:
2017-083G
轨道中心:
EARTH
卫星名称:
铱星星座 137星
卫星全名:
铱星星座 137星 (IRIDIUM 137)
卫星状态:
在轨 (已飞行3184 天)
发射日期:
2017-12-23 UTC
国别 :
美国 (US)
星等 :
--
Orbit Information
数据来源 国际轨道数据 AOE轨道数据
星历时间 2026-09-10T22:31:39+0800
12小时前
查看轨道信息
2026-09-09T23:00:00+0800
1天前
查看轨道信息
半长轴 7155.805km 7155.798km
偏心率 0.0001781 0.000172
轨道倾角 86.393° 86.395°
近地点辐角 94.925° 57.436°
升交点赤经 286.456° 286.867°
平近点角 265.215° 284.381°
近地点 776.393km 776.43km
远地点 778.943km 778.892km
周期 100.403分钟 100.403分钟
每日圈数 14.342176 14.342198
Detailed Information
平衡模式:
三轴稳定
覆盖范围:
全球
运营商:
铱星通信公司
运营商所在国:
美国
制造商(研发单位):
阿莱尼亚宇航公司
制造商所在国:
意大利
使用方式:
暂无
Satellite Introduction
铱星(Iridium)是由共66个运作中的通信卫星组成的卫星通信系统。这个系统原本规划77个通信卫星,所以用原子序数为77的铱元素来命名。铱卫星允许人们使用手持型电子设备进行全球性的语音及数据通讯。该卫星仍在工作。
2D Orbit Map
3D Orbit Map
Orbit Altitude Analysis Chart
Orbit Inclination Analysis Chart
Orbit Comprehensive Analysis Chart
View Comprehensive Chart
Miss Distance Evolution Trend with All Objects
Collision Probability Evolution Trend with All Objects